User: anonymous   Login
Location: Voyageurs National Park
(48.5020°N, 92.9292°W)
Time: 11:56:50
(UTC-05:00)
Language:

Terra - Orbit

View from above orbital plane
View from above orbital plane
View from above satellite
View from above satellite

Ground track
Ground track

The orbit data is extracted from the following two-line orbital elements,

1 25994U 99068A   16240.16226331 -.00000007  00000-0  84310-5 0  9997
2 25994  98.2037 313.4487 0000657  64.1203 296.0082 14.57126023887858
Epoch (UTC): 27 August 2016 03:53:39
Eccentricity: 0.0000657
inclination: 98.2037°
perigee height: 702 km
apogee height: 703 km
right ascension of ascending node: 313.4487°
argument of perigee: 64.1203°
revolutions per day: 14.57126023
mean anomaly at epoch: 296.0082°
orbit number at epoch: 88785

The dashed part of the orbit path shows where the satellite is in the earth's shadow,  

DLR